Погода в Владивостоке

Погода в Владивостоке : погода сейчас, прогноз погоды и архив. Всё, что Вы хотите узнать о погоде в Владивостоке!

Хотите узнать прогноз погоды в Владивостоке? Тогда Вам сюда: Погода в Владивостоке

Поиск расширенной информации на нашем сайте:

Другие новости

Новости СМИ2

Главная страница сайта

Новости сайта

02.10.2013

Напоминаем, что на нашем новом сайте вы можете получить высокодетализированные прогнозы погоды по пунктам России, СНГ и мира (включающие важные для авиации метеовеличины, такие как направление и скорость ветра, видимость, явления погоды, количество и форма облачности, нижняя и верхняя граница облачности), а также ознакомиться с разнообразными материалами по авиационной метеорологии и подборкой полезных ссылок на эту тему.

Сайт Метеоцентр.Азия посвящён разработке технологий оптимизации авиаметеорологического обслуживания, включая проектирование и перспективное создание нескольких автоматизированных авиаметеорологических систем:
- система выпуска высокодетальных прогностических карт явлений погоды для нижнего воздушного пространства по России и ближнему зарубежью;
- система верификации прогнозов TAF (выпускаемых синоптиками официальных АМСГ РФ и ближнего зарубежья) и AUTOTAF (выпускаемых сайтом Метеоцентр.Азия) - выявление ошибок, онлайн-сопоставление с фактической погодой METAR, автоматическое внесение коррективов в прогнозы при резком отклонении фактической погоды от прогноза, подсчёт оправдываемости прогнозов по элементам и в целом;
- система обработки, анализа и отображения авиаметеорологической информации для применения провайдерами метеорологической информации.


Погода в Владивостоке - сегодня

Время (UTC), дата Ветер
(°,м/с) 
Видим.   Явления Облачность Т
(°С)
Тd
(°С)
f(%) Тe
(°С)
Pmin
(гПа)
dP
(гПа)
Po
(мм)
O2
(г/м3)
Тmin Tmax R s Состояние
почвы
00 24.04.17 140 (ЮВ) 0200 м  туман  ?/?  
+5.1 +5.1 100 +3  1019.2  0.6  747  295  +4.3         
03 24.04.17 150 (ЮВ) 9-12{12}  0200 м  туман  ?/?  
+4.3 +4.3 100 +1  1018.3  -1  746  295           
06 24.04.17 160 (Ю) 7-11{14}  0200 м  слаб. дождь{туман}  ?/?  
+4.4 +4.4 100 +1  1017.2  -1  746  295           
09 24.04.17 140 (ЮВ) 15-19{19}  0200 м  туман{дождь}  ?/?  
+5.8 +5.8 100 +1  1013.9  -3.1  743  292    +8.2     
12 24.04.17 140 (ЮВ) 12-16{19}  0200 м  туман{дождь}  ?/?  
+5.7 +5.7 100 +2  1014.2  0.3  743  292           
15 24.04.17 160 (Ю) 5{17}  0200 м  туман  ?/?  
+6 +6 100 +4  1014.3  -0.1  743  292           
18 24.04.17 280 (З) 0200 м  туман  ?/?  
+5.4 +5.4 100 +5  1013.3  -1  743  293           
21 24.04.17 270 (З) 10 км  в посл. час туман  8/8 600 м 
[Sc]
+5.1 +5.1 100 +6  1013.8  0.4  743  293  +5      влажная 
00 25.04.17 190 (Ю) 0200 м  туман  ?/?  
+6.2 +6.2 100 +6  1014.6  0.9  744  292  +4.6         
03 25.04.17 150 (ЮВ) 20000 м  {туман}  6/6 600 м 
[Sc]
+10.9 +2.1 55 +9  1013.8  -0.4  743  288           
06 25.04.17 150 (ЮВ) 20000 м  {дождь, туман}  8/8 600 м кучево-дожд. 
[Cb cap]
+10.6 +2.5 57 +9  1012.8  -1  743  288           
09 25.04.17 030 (СВ) 2{18}  10 км  слаб. ливневой дождь  10/10 600 м кучево-дожд. 
[Cb cap]
+7.1 +3.3 77 +7  1015.2  2.1  744  292    +12.2  0.0     
12 25.04.17 200 (Ю) 5{11}  20000 м  {ливн. осадки}  3/3 600 м 
[Sc]
+6.7 +1.2 68 +5  1015.4  0.2  744  293           
15 25.04.17 230 (ЮЗ) 20000 м    ясно 
+6.6 +0.7 66 +6  1015.6  0.1  744  293           
18 25.04.17 270 (З) 20000 м    ясно 
+5.8 -0.3 65 +4  1014.5  -1.2  744  293           
21 25.04.17 170 (Ю) 20000 м    ясно 
+4.6 +0.3 74 +3  1013.6  -0.9  743  294  +4.4        влажная 
00 26.04.17 200 (Ю) 20000 м    3/0 средняя 
[Ac lent]
+8.3 +0 56 +6  1012.4  -0.9  742  290           
03 26.04.17 190 (Ю) 7{11}  20000 м    10/10 600 м кучево-дожд. 
[Cb calv]
+12.1 -0.4 42 +11  1009.9  -2.2  741  286           
06 26.04.17 300 (СЗ) 2{13}  20000 м  слаб. ливневой дождь  8/8 600 м кучево-дожд. 
[Cb calv]
+9 +1.5 59 +9  1008.8  -1.2  740  288           
09 26.04.17 280 (З) 7-10{16}  20000 м  {ливн. осадки}  9/9 600 м кучево-дожд. 
[Cb calv]
+9.2 -0.4 51 +7  1008.2  -0.7  739  288    +12.9  0.4     
12 26.04.17 280 (З) 9-12{16}  20000 м  {ливн. осадки}  1/1 600 м кучево-дожд. 
[Cb calv]
+8.5 -0.1 55 +6  1009.4  1.2  740  289           
15 26.04.17 280 (З) 3{12}  20000 м    8/8 600 м кучево-дожд. 
[Cb calv]
+7.5 -0.5 57 +7  1008.7  -0.8  739  290           
18 26.04.17 280 (З) 4{11}  20000 м    9/9 600 м кучево-дожд. 
[Cb calv]
+6.9 -1.1 57 +6  1006.8  -1.8  738  290           
21 26.04.17 280 (З) 20000 м    10/3 600 м верхняя 
[Sc|Ci fib]
+6.8 -1.4 56 +5  1005.6  -1.3  737  290  +6.2        влажная 
00 27.04.17 310 (СЗ) 5{11}  20000 м    10/4 600 м верхняя 
[Sc|Ci fib]
+8.8 -1 50 +7  1004.7  -0.7  737  288           
Время (UTC), дата Ветер
(°,м/с) 
Видим.   Явления Облачность Т
(°С)
Тd
(°С)
f(%) Тe
(°С)
Pmin
(гПа)
dP
(гПа)
Po
(мм)
O2
(г/м3)
Тmin Tmax R s Состояние
почвы

Для получения пояснительной информации подведите курсор к названию столбца.

ПОГОДА в Владивостоке - архив

Всё, что Вы хотите узнать о погоде в Владивостоке - удобно и подробно!

Выберите нужную дату (начиная с 1 января 2015* года) и нажмите кнопку "Найти".
Будут отображены архивные сводки погоды по пункту Владивосток, начиная с указанной даты.


Отображать данные в формате CSV (для использования в таблицах Excel)


Внимание! Наш архив погоды предназначен исключительно для личного некоммерческого использования в познавательных целях. Если Вам необходимы официальные справки о состоянии погоды (для производственных, юридических, коммерческих и т.п. целей), обращайтесь в органы Росгидромета.

*Примечание: данная дата относится к архиву по метеостанциям СССР (Россия, СНГ, Балтия).
Архив по метеостанциям Зарубежной Европы и Азии (кроме Китая) хранится 10 дней, по другим регионам земного шара (Китай, Африка, Америка, Австралия, Океания) - 1 день.

Владивосток - район местоположения метеостанции


Название, широта, долгота, высота метеостанции:
Владивосток (город) 43.1°ш. 131.9°д. 183 м над ур. моря [Российская Федерация]

Дополнительная информация

В oтличие oт бoльшинства пoгoдных сайтoв мы публикуем пoдрoбную метеoинфoрмацию в детальнoм прoфессиoнальнoм фoрмате.

Характеристики температуры и влажнoсти вoздуха измеряются на высoте 2 м в тени вдали oт зданий и деревьев.
Скoрoсть ветра измеряется на высoте 10 м (на урoвне рoста челoвека скoрoсть ветра ниже в 1.5-2 раза). Если метеoстанция нахoдится в гoрoде или в лесу, тo скoрoсть ветра занижена на 2-4 м/с пo сравнению с oткрытым местoм. Скoрoсть ветра над акватoриями крупных рек и oзёр, а также на вершинах хoлмoв на 2-5 м/с выше, чем в oбычных услoвиях.
Атмoсфернoе давление в разных тoчках местнoсти мoжет значительнo oтличаться oт давления на метеoстанции, в зависимoсти oт услoвий рельефа (при пoдъёме на 10 м давление пoнижается примернo на 1 мм рт.ст.).